Regional Weather Roundup
Issued by NWS

Home | Current Version | Previous Version | Graphics & Text | Print | Product List | Glossary On
Versions: 1 2 3 4 5 6 7 8 9 10 11 12 13 14 15 16 17 18 19 20 21 22 23 24 25 26 27 28 29 30 31 32 33 34 35 36 37 38 39 40 41 42 43 44 45 46 47 48 49 50
000
ASUS43 KLOT 021110
RWRIL

ILLINOIS REGIONAL WEATHER ROUNDUP
NATIONAL WEATHER SERVICE CHICAGO/ROMEOVILLE IL
500 AM CST MON MAR 02 2015

NOTE: "FAIR" INDICATES FEW OR NO CLOUDS BELOW 12,000 FEET WITH NO
SIGNIFICANT WEATHER AND/OR OBSTRUCTIONS TO VISIBILITY.

* THESE STATIONS ARE NOT UNDER NWS QUALITY CONTROL. THEY ALSO MAY NOT
  REPORT WEATHER SUCH AS PRECIPITATION OR FOG.

ILZ001-002-007-009-015-016-024-021200-
NORTHWEST ILLINOIS

CITY           SKY/WX    TMP DP  RH WIND       PRES   REMARKS
MOLINE         PTCLDY     5   2  87 W5        30.50R WCI  -4
STERLING*      PTCLDY     9   3  78 W7        30.47R WCI  -3
SAVANNA*       PTCLDY     3  -1  83 CALM      30.48R
$$

ILZ003-004-008-010-011-017-018-021200-
NORTH CENTRAL ILLINOIS

CITY           SKY/WX    TMP DP  RH WIND       PRES   REMARKS
ROCKFORD       PTCLDY    10   5  80 SW3       30.47R
FREEPORT*      PTCLDY    11   7  85 W6        30.47R WCI   1
ROCHELLE*      PTCLDY    -3  -6  88 S3        30.47R
DE KALB*       PTCLDY    11   6  82 W10       30.45R WCI  -3
PERU*          PTCLDY    12   8  85 W7        30.49R WCI   1
$$

ILZ005-006-012>014-019>023-021200-
NORTHEAST ILLINOIS

CITY           SKY/WX    TMP DP  RH WIND       PRES   REMARKS
CHICAGO-OHARE  CLEAR     15   8  73 W9        30.44R WCI   3
CHICAGO-MIDWAY PTCLDY    17   9  70 W8        30.45R WCI   7
AURORA         PTCLDY     2  -3  80 NW8       30.46R WCI -12
LANSING*       PTCLDY     9   6  89 W3        30.46R
JOLIET*        PTCLDY     2   0  88 CALM      30.47R FOG
WAUKEGAN       CLEAR     13   8  81 W5        30.43R WCI   5
DUPAGE AIRPORT PTCLDY    12   6  77 NW5       30.44R WCI   4
KANKAKEE*      PTCLDY     3   0  86 W8        30.47S WCI -10
WHEELING       CLEAR     14   7  73 W5        30.46R WCI   6
MORRIS*        PTCLDY     4   2  90 W7        30.46S WCI  -8
ROMEOVILLE*    MOCLDY     9   6  85 W6        30.46R WCI   0
NORTHERLY ISL    N/A     19  10  68 W16         N/A  WCI   5
$$

LMZ740>746-021200-
SOUTHERN LAKE MICHIGAN

STATION/POSITION SKY/WX   TEMP    WIND        PRES    VSBY  WAVE
                          AIR SEA DIR/SP/G                  HT/PER
                          (F)     (DEG/KT/KT) (MB)    (MI)  (FT/S)
WAUKEGAN HARBOR            17     280/ 10/ 15   N/A
HARRISON CRIB              20     280/ 15/ 19   N/A
BURNHAM HARBOR             19     270/ 13/ 15   N/A
CALUMET HARBOR             18     260/  5/  9 1029.6R
MICHIGAN CITY              18     240/ 11/ 13   N/A
$$

ILZ025>027-034>036-040-047-049-050-058-095>099-021200-
WEST-CENTRAL ILLINOIS

CITY           SKY/WX    TMP DP  RH WIND       PRES   REMARKS
QUINCY         MOCLDY    17  15  92 SW3       30.51R FOG
GALESBURG*     PTCLDY    11  10  93 W6        30.50R WCI   2
MACOMB*        MOCLDY     9   8  94 W9        30.52R FOG     WCI  -4
JACKSONVILLE*  MOCLDY    19  16  90 CALM      30.52R FOG
PITTSFIELD*    CLOUDY    16  14  91 W5        30.52R WCI   9
$$

ILZ028>032-037-038-041>044-048-051>054-059>061-021200-
CENTRAL ILLINOIS

CITY           SKY/WX    TMP DP  RH WIND       PRES   REMARKS
PONTIAC        PTCLDY     9   7  92 CALM      30.49R
BLOOMINGTON    MOCLDY    16  11  80 W7        30.48R WCI   6
DECATUR        CLOUDY    20  16  84 W5        30.50R WCI  13
PEORIA         MOCLDY    22  12  65 NW6       30.50R WCI  14
LACON*         PTCLDY    10   5  82 CALM      30.50R
LINCOLN*       CLOUDY    21  17  83 CALM      30.53R
SPRINGFIELD    CLOUDY    16  13  88 W3        30.51R
TAYLORVILLE    MOCLDY    16  12  86 CALM      30.52R
$$

ILZ033-039-045-046-055>057-062-063-021200-
EAST-CENTRAL ILLINOIS

CITY           SKY/WX    TMP DP  RH WIND       PRES   REMARKS
CHAMPAIGN      CLOUDY    11   8  88 W6        30.48R WCI   1
DANVILLE*      CLOUDY    16  10  79 W5        30.45S WCI   9
RANTOUL*       CLOUDY    17  13  86 W7        30.48R WCI   7
MATTOON        CLOUDY    18  12  77 NW7       30.49R WCI   9
PARIS*         MOCLDY    16  13  89 CALM      30.50R
$$

ILZ079-100>102-021200-
SOUTHWEST ILLINOIS

CITY           SKY/WX    TMP DP  RH WIND       PRES   REMARKS
ALTON          FOG       10   8  91 CALM      30.52R VSB<1/4
BELLEVILLE     PTCLDY    10   8  95 CALM      30.52R
CAHOKIA*       FAIR      10   7  87 CALM      30.54R FOG
SPARTA*        FOG       16  14  91 CALM      30.54R VSB 1/2
$$

ILZ064>066-069>071-074>076-080>082-084>086-088>090-092>094-021200-
SOUTH-CENTRAL ILLINOIS

CITY           SKY/WX    TMP DP  RH WIND       PRES   REMARKS
CARBONDALE     CLEAR     23  19  85 CALM      30.53R
CAIRO*         PTCLDY    31  23  73 N10       30.52S WCI  22
EFFINGHAM*     MOCLDY    17  13  84 CALM      30.52R
MARION         CLEAR     25  21  86 CALM      30.53S
MT. VERNON     PTCLDY     9   1  72 CALM      30.52S
CENTRALIA*     FOG        6   2  83 CALM      30.52R VSB<1/4
SALEM*           N/A    N/A N/A N/A CALM      30.52R FOG
METROPOLIS*    PTCLDY    28  23  81 N5        30.52R WCI  23
$$

ILZ067-068-072-073-078-083-087-091-021200-
SOUTHEAST ILLINOIS

CITY           SKY/WX    TMP DP  RH WIND       PRES   REMARKS
LAWRENCEVILLE  MOCLDY    15  11  83 NW3       30.52R FOG
FLORA*         MOCLDY    17  16  95 NW5       30.52S FOG     WCI  10
FAIRFIELD*     MOCLDY    16  15  94 CALM      30.52S FOG
HARRISBURG*    CLEAR     25  20  82 N5        30.54R WCI  19
ROBINSON*      MOCLDY     6   5  93 CALM      30.52S
CARMI*         PTCLDY    26  22  87 N7        30.53R WCI  18
$$

ABBREVIATIONS USED IN REMARKS
   TC - TEMPERATURE IN CELSIUS
  WCI - WIND CHILL INDEX
   HX - HEAT INDEX
  VSB - VISIBILITY
$$



USA.gov is the U.S. government's official web portal to all federal, state and local government web resources and services.